SQ5DCP-1 Weather Reports


Display with metric or nautical units.
time (UTC)temp
F
wind
direction
speed
MPH
gust
MPH
rain 1hr
in
rain 24hr
in
rain mn
in
humidity
%
barometer
mb
20171023075601 46 22 1.0 0.0 0.00 0.00 0.00 83 1004.7
20171023075101 46 22 2.0 0.0 0.00 0.00 0.00 83 1004.7
20171023074601 46 0 0.0 0.0 0.00 0.00 0.00 83 1004.7
20171023074101 46 337 0.0 0.0 0.00 0.00 0.00 83 1004.7
20171023073601 46 315 2.0 0.0 0.00 0.00 0.00 83 1004.6
20171023073101 46 337 0.0 0.0 0.00 0.00 0.00 83 1004.6
20171023072601 46 315 0.0 0.0 0.00 0.00 0.00 83 1004.5
20171023072101 46 337 1.0 0.0 0.00 0.00 0.00 83 1004.6
20171023071601 46 337 0.0 0.0 0.00 0.00 0.00 83 1004.5
20171023071101 46 315 0.0 0.0 0.00 0.00 0.00 83 1004.5
20171023070601 46 337 0.0 0.0 0.00 0.00 0.00 83 1004.5
20171023070101 46 22 0.0 0.0 0.00 0.00 0.00 83 1004.5
20171023065601 46 22 0.0 0.0 0.00 0.00 0.00 83 1004.5
20171023065101 46 45 0.0 0.0 0.00 0.00 0.00 83 1004.4
20171023064601 46 45 0.0 0.0 0.00 0.00 0.00 83 1004.4
20171023064101 46 45 0.0 0.0 0.00 0.00 0.00 83 1004.4
20171023063601 46 45 0.0 0.0 0.00 0.00 0.00 83 1004.4
20171023063101 46 45 0.0 0.0 0.00 0.00 0.00 83 1004.4
20171023062602 46 22 0.0 0.0 0.00 0.00 0.00 83 1004.4
20171023062101 46 22 0.0 0.0 0.00 0.00 0.00 83 1004.4
20171023061601 46 45 0.0 0.0 0.00 0.00 0.00 83 1004.4
20171023061101 46 67 0.0 0.0 0.00 0.00 0.00 83 1004.4
20171023060601 46 67 0.0 0.0 0.00 0.00 0.00 83 1004.4
20171023060102 46 45 1.0 0.0 0.00 0.00 0.00 83 1004.4
20171023055602 46 67 1.0 0.0 0.00 0.00 0.00 83 1004.4
20171023055101 46 67 2.0 0.0 0.00 0.00 0.00 83 1004.3
20171023054602 46 67 2.0 0.0 0.00 0.00 0.00 83 1004.3
20171023054101 46 67 2.0 0.0 0.00 0.00 0.00 83 1004.4
20171023053601 46 67 0.0 0.0 0.00 0.00 0.00 83 1004.2
20171023053101 46 67 0.0 0.0 0.00 0.00 0.00 84 1004.2
20171023052601 46 45 1.0 0.0 0.00 0.00 0.00 83 1004.3
20171023052101 46 90 1.0 0.0 0.00 0.00 0.00 83 1004.2
20171023051601 46 90 1.0 0.0 0.00 0.00 0.00 83 1004.2
20171023051101 46 112 2.0 0.0 0.00 0.00 0.00 83 1004.2
20171023050601 46 67 2.0 0.0 0.00 0.00 0.00 83 1004.2
20171023050101 46 67 0.0 0.0 0.00 0.00 0.00 83 1004.1
20171023045601 46 67 0.0 0.0 0.00 0.00 0.00 83 1004.1
20171023045101 46 45 2.0 0.0 0.00 0.00 0.00 83 1004.1
20171023044602 46 67 2.0 0.0 0.00 0.00 0.00 83 1004.1
20171023044101 46 112 0.0 0.0 0.00 0.00 0.00 83 1004.1
20171023043601 46 112 0.0 0.0 0.00 0.00 0.00 83 1004.1
20171023043101 46 112 0.0 0.0 0.00 0.00 0.00 83 1004.1
20171023042601 46 112 0.0 0.0 0.00 0.00 0.00 83 1004.1
20171023042102 46 112 0.0 0.0 0.00 0.00 0.00 84 1004.1
20171023041602 46 112 0.0 0.0 0.00 0.00 0.00 83 1004.2
20171023041101 46 112 0.0 0.0 0.00 0.00 0.00 84 1004.2
20171023040602 46 112 0.0 0.0 0.00 0.00 0.00 83 1004.2
20171023040101 46 112 0.0 0.0 0.00 0.00 0.00 84 1004.2
20171023035601 46 112 0.0 0.0 0.00 0.00 0.00 83 1004.2
20171023035102 46 112 0.0 0.0 0.00 0.00 0.00 83 1004.3
20171023034602 46 112 0.0 0.0 0.00 0.00 0.00 83 1004.3
20171023034102 46 112 0.0 0.0 0.00 0.00 0.00 83 1004.3
20171023033602 46 112 0.0 0.0 0.00 0.00 0.00 84 1004.3
20171023033102 46 112 0.0 0.0 0.00 0.00 0.00 84 1004.3
20171023032602 46 112 0.0 0.0 0.00 0.00 0.00 84 1004.4
20171023032102 46 112 0.0 0.0 0.00 0.00 0.00 84 1004.3
20171023031602 46 112 0.0 0.0 0.00 0.00 0.00 84 1004.3
20171023031102 46 112 0.0 0.0 0.00 0.00 0.00 84 1004.3
20171023030601 46 112 0.0 0.0 0.00 0.00 0.00 84 1004.3
20171023030102 46 112 0.0 0.0 0.00 0.00 0.00 84 1004.3
20171023025601 46 112 0.0 0.0 0.00 0.00 0.00 84 1004.2
20171023025101 46 112 0.0 0.0 0.00 0.00 0.00 84 1004.2
20171023024602 46 112 0.0 0.0 0.00 0.00 0.00 84 1004.2
20171023024059 46 112 0.0 0.0 0.00 0.00 0.00 84 1004.3
20171023023559 46 112 0.0 0.0 0.00 0.00 0.00 84 1004.2
20171023023059 46 112 0.0 0.0 0.00 0.00 0.00 84 1004.2
20171023022559 46 112 0.0 0.0 0.00 0.00 0.00 84 1004.2
20171023022059 46 112 0.0 0.0 0.00 0.00 0.00 84 1004.2
20171023021559 46 112 0.0 0.0 0.00 0.00 0.00 84 1004.2
20171023021059 46 112 0.0 0.0 0.00 0.00 0.00 84 1004.2
20171023020559 46 112 0.0 0.0 0.00 0.00 0.00 84 1004.3
20171023020059 46 112 0.0 0.0 0.00 0.00 0.00 84 1004.4
20171023015559 46 112 1.0 0.0 0.00 0.00 0.00 84 1004.4
20171023015059 46 112 0.0 0.0 0.00 0.00 0.00 84 1004.5
20171023014559 46 112 0.0 0.0 0.00 0.00 0.00 84 1004.5
20171023014059 46 112 0.0 0.0 0.00 0.00 0.00 84 1004.6
20171023013559 46 112 0.0 0.0 0.00 0.00 0.00 84 1004.6
20171023013059 46 90 0.0 0.0 0.00 0.00 0.00 84 1004.7
20171023012558 46 90 0.0 0.0 0.00 0.00 0.00 84 1004.7
20171023012059 46 90 0.0 0.0 0.00 0.00 0.00 84 1004.6
20171023011558 46 90 0.0 0.0 0.00 0.00 0.00 84 1004.7
20171023011059 46 112 2.0 0.0 0.00 0.00 0.00 84 1004.6
20171023010559 46 112 1.0 0.0 0.00 0.00 0.00 84 1004.7
20171023010059 46 112 1.0 0.0 0.00 0.00 0.00 84 1004.7
20171023005559 46 90 0.0 0.0 0.00 0.00 0.00 84 1004.8
20171023005059 46 90 1.0 0.0 0.00 0.00 0.00 84 1004.9
20171023004559 46 90 0.0 0.0 0.00 0.00 0.00 84 1004.8
20171023004059 46 90 0.0 0.0 0.00 0.00 0.00 84 1004.9
20171023003558 46 90 0.0 0.0 0.00 0.00 0.00 84 1004.9
20171023003059 46 90 0.0 0.0 0.00 0.00 0.00 84 1004.9
20171023002559 46 112 1.0 0.0 0.00 0.00 0.00 84 1005.0
20171023002100 46 90 0.0 0.0 0.00 0.00 0.00 84 1005.1
20171023001559 46 90 1.0 0.0 0.00 0.00 0.00 84 1005.0
20171023001059 46 112 0.0 0.0 0.00 0.00 0.00 84 1005.1
20171023000559 46 90 0.0 0.0 0.00 0.00 0.00 84 1005.1
20171023000059 46 67 1.0 0.0 0.00 0.00 0.00 84 1005.3
20171022235559 46 112 1.0 0.0 0.00 0.00 0.00 84 1005.3
20171022235059 46 112 1.0 0.0 0.00 0.00 0.00 84 1005.2
20171022234559 46 45 1.0 0.0 0.00 0.00 0.00 84 1005.4
20171022234059 46 112 0.0 0.0 0.00 0.00 0.00 84 1005.5
20171022233559 46 112 0.0 0.0 0.00 0.00 0.00 84 1005.6
20171022233059 46 90 1.0 0.0 0.00 0.00 0.00 84 1005.5
20171022232559 46 112 0.0 0.0 0.00 0.00 0.00 84 1005.6
20171022232059 46 112 0.0 0.0 0.00 0.00 0.00 84 1005.6
20171022231559 46 112 0.0 0.0 0.00 0.00 0.00 84 1005.7
20171022231059 46 112 0.0 0.0 0.00 0.00 0.00 84 1005.8
20171022230559 46 112 0.0 0.0 0.00 0.00 0.00 84 1005.7
20171022230059 46 112 0.0 0.0 0.00 0.00 0.00 84 1005.7
20171022225559 46 112 1.0 0.0 0.00 0.00 0.00 84 1005.8
20171022225059 46 112 0.0 0.0 0.00 0.00 0.00 84 1005.9
20171022224559 46 112 1.0 0.0 0.00 0.00 0.00 84 1005.9
20171022224059 46 67 3.0 0.0 0.00 0.00 0.00 84 1005.9
20171022223559 46 112 0.0 0.0 0.00 0.00 0.00 84 1005.9
20171022223059 46 112 1.0 0.0 0.00 0.00 0.00 84 1005.9
20171022222559 46 90 1.0 0.0 0.00 0.00 0.00 84 1005.9
20171022222059 46 135 0.0 0.0 0.00 0.00 0.00 84 1005.9
20171022221559 46 135 0.0 0.0 0.00 0.00 0.00 84 1006.0
20171022221059 46 112 0.0 0.0 0.00 0.00 0.00 84 1006.1
20171022220559 46 135 0.0 0.0 0.00 0.00 0.00 84 1006.1
20171022220059 46 112 0.0 0.0 0.00 0.00 0.00 84 1006.1
20171022215559 46 135 0.0 0.0 0.00 0.00 0.00 84 1006.1
20171022215059 46 112 1.0 0.0 0.00 0.00 0.00 84 1006.1
20171022214559 46 135 0.0 0.0 0.00 0.00 0.00 84 1006.1
20171022214059 46 135 1.0 0.0 0.00 0.00 0.00 84 1006.1
20171022213559 46 112 1.0 0.0 0.00 0.00 0.00 84 1006.1
20171022213059 46 112 2.0 0.0 0.00 0.00 0.00 84 1006.1
20171022212559 46 135 0.0 0.0 0.00 0.00 0.00 84 1006.1
20171022212100 46 67 3.0 0.0 0.00 0.00 0.00 84 1006.1
20171022211559 46 135 1.0 0.0 0.00 0.00 0.00 84 1006.1
20171022211059 46 90 2.0 0.0 0.00 0.00 0.00 84 1006.2
20171022210559 46 90 2.0 0.0 0.00 0.00 0.00 84 1006.2
20171022210100 46 112 1.0 0.0 0.00 0.00 0.00 84 1006.2
20171022205559 46 67 2.0 0.0 0.00 0.00 0.00 84 1006.3
20171022205059 46 112 1.0 0.0 0.00 0.00 0.00 84 1006.3
20171022204559 46 112 0.0 0.0 0.00 0.00 0.00 84 1006.3
20171022204059 46 90 1.0 0.0 0.00 0.00 0.00 84 1006.3
20171022203559 46 112 2.0 0.0 0.00 0.00 0.00 84 1006.4
20171022203059 46 135 1.0 0.0 0.00 0.00 0.00 84 1006.4
20171022202559 46 112 1.0 0.0 0.00 0.00 0.00 84 1006.4
20171022202059 46 135 1.0 0.0 0.00 0.00 0.00 84 1006.4
20171022201600 46 112 0.0 0.0 0.00 0.00 0.00 84 1006.5
20171022201100 46 90 3.0 0.0 0.00 0.00 0.00 84 1006.5
20171022200600 46 112 2.0 0.0 0.00 0.00 0.00 84 1006.5
20171022200059 46 90 0.0 0.0 0.00 0.00 0.00 84 1006.5
20171022195600 46 112 1.0 0.0 0.00 0.00 0.00 84 1006.6
20171022195059 46 112 0.0 0.0 0.00 0.00 0.00 84 1006.5
20171022194559 46 90 2.0 0.0 0.00 0.00 0.00 85 1006.5
20171022194059 46 135 1.0 0.0 0.00 0.00 0.00 85 1006.5
20171022193600 46 112 0.0 0.0 0.00 0.00 0.00 85 1006.5
20171022193100 46 112 0.0 0.0 0.00 0.00 0.00 85 1006.4
20171022192600 46 112 0.0 0.0 0.00 0.00 0.00 85 1006.4
20171022192100 46 112 1.0 0.0 0.00 0.00 0.00 85 1006.4
20171022191600 46 112 2.0 0.0 0.00 0.00 0.00 85 1006.4
20171022191100 46 67 2.0 0.0 0.00 0.00 0.00 85 1006.4
20171022190559 46 67 4.0 0.0 0.00 0.00 0.00 85 1006.4
20171022190059 46 112 2.0 0.0 0.00 0.00 0.00 85 1006.4
20171022185600 46 90 2.0 0.0 0.00 0.00 0.00 85 1006.4
20171022185100 46 112 2.0 0.0 0.00 0.00 0.00 85 1006.4
20171022184559 46 112 1.0 0.0 0.00 0.00 0.00 85 1006.6
20171022184100 46 112 1.0 0.0 0.00 0.00 0.00 85 1006.6
20171022183600 46 112 0.0 0.0 0.00 0.00 0.00 85 1006.6
20171022183059 46 112 2.0 0.0 0.00 0.00 0.00 85 1006.7
20171022182600 46 112 3.0 0.0 0.00 0.00 0.00 85 1006.6
20171022182059 46 112 2.0 0.0 0.00 0.00 0.00 85 1006.6
20171022181600 46 90 2.0 0.0 0.00 0.00 0.00 85 1006.7
20171022181100 46 112 1.0 0.0 0.00 0.00 0.00 85 1006.8
20171022180600 46 112 2.0 0.0 0.00 0.00 0.00 85 1006.9
20171022180059 46 112 0.0 0.0 0.00 0.00 0.00 85 1007.0
20171022175559 46 112 0.0 0.0 0.00 0.00 0.00 85 1007.0
20171022175059 46 157 2.0 0.0 0.00 0.00 0.00 85 1007.1
20171022174600 46 112 0.0 0.0 0.00 0.00 0.00 85 1007.0
20171022174100 46 90 3.0 0.0 0.00 0.00 0.00 85 1006.9
20171022173600 46 135 1.0 0.0 0.00 0.00 0.00 85 1006.9
20171022173100 46 135 3.0 0.0 0.00 0.00 0.00 85 1006.8
20171022172600 46 112 2.0 0.0 0.00 0.00 0.00 85 1006.8
20171022172100 46 112 5.0 0.0 0.00 0.00 0.00 85 1006.8
20171022171559 46 112 1.0 0.0 0.00 0.00 0.00 85 1006.9
20171022171100 46 135 3.0 0.0 0.00 0.00 0.00 85 1006.9
20171022170600 46 135 4.0 0.0 0.00 0.00 0.00 85 1006.9
20171022170059 46 112 2.0 0.0 0.00 0.00 0.00 85 1006.9
20171022165600 46 112 1.0 0.0 0.00 0.00 0.00 85 1006.9
20171022165100 46 90 3.0 0.0 0.00 0.00 0.00 85 1007.0
20171022164600 46 157 3.0 0.0 0.00 0.00 0.00 85 1006.9
20171022164100 46 112 2.0 0.0 0.00 0.00 0.00 85 1007.0
20171022163600 46 112 4.0 0.0 0.00 0.00 0.00 85 1006.9
20171022163100 46 112 1.0 0.0 0.00 0.00 0.00 85 1007.0
20171022162559 46 112 1.0 0.0 0.00 0.00 0.00 85 1007.0
20171022162100 46 135 5.0 0.0 0.00 0.00 0.00 85 1006.9
20171022161559 46 112 1.0 0.0 0.00 0.00 0.00 85 1006.9
20171022161100 46 90 4.0 0.0 0.00 0.00 0.00 85 1006.8
20171022160559 46 112 2.0 0.0 0.00 0.00 0.00 85 1006.9
20171022160100 46 135 1.0 0.0 0.00 0.00 0.00 85 1007.0
20171022155600 46 112 2.0 0.0 0.00 0.00 0.00 85 1007.0
20171022155100 46 135 4.0 0.0 0.00 0.00 0.00 85 1007.0
20171022154600 46 112 2.0 0.0 0.00 0.00 0.00 85 1007.0
20171022154100 46 67 1.0 0.0 0.00 0.00 0.00 85 1007.0
20171022153600 46 112 4.0 0.0 0.00 0.00 0.00 85 1006.9
20171022153100 47 112 0.0 0.0 0.00 0.00 0.00 85 1007.0
20171022152600 47 112 6.0 0.0 0.00 0.00 0.00 85 1007.0
20171022152100 47 112 2.0 0.0 0.00 0.00 0.00 85 1007.1
20171022151600 47 112 3.0 0.0 0.00 0.00 0.00 85 1007.1
20171022151101 47 112 3.0 0.0 0.00 0.00 0.00 84 1007.1
20171022150600 47 112 4.0 0.0 0.00 0.00 0.00 84 1007.1
20171022150100 47 157 3.0 0.0 0.00 0.00 0.00 84 1007.1
20171022145600 47 112 2.0 0.0 0.00 0.00 0.00 84 1007.0
20171022145100 47 135 5.0 0.0 0.00 0.00 0.00 84 1007.0
20171022144601 47 112 2.0 0.0 0.00 0.00 0.00 84 1007.1
20171022144100 47 135 3.0 0.0 0.00 0.00 0.00 84 1007.0
20171022143600 47 112 1.0 0.0 0.00 0.00 0.00 84 1007.0
20171022143101 47 112 2.0 0.0 0.00 0.00 0.00 84 1007.0
20171022142600 47 135 7.0 0.0 0.00 0.00 0.00 84 1007.0
20171022142100 47 135 3.0 0.0 0.00 0.00 0.00 84 1006.8
20171022141600 47 112 4.0 0.0 0.00 0.00 0.00 84 1006.7
20171022141100 47 67 7.0 0.0 0.00 0.00 0.00 84 1006.7
20171022140600 47 112 2.0 0.0 0.00 0.00 0.00 84 1006.8
20171022140100 47 90 3.0 0.0 0.00 0.00 0.00 84 1006.9
20171022135600 47 67 2.0 0.0 0.00 0.00 0.00 84 1006.9
20171022135100 47 135 5.0 0.0 0.00 0.00 0.00 84 1007.0
20171022134600 47 112 3.0 0.0 0.00 0.00 0.00 84 1007.2
20171022134101 47 112 6.0 0.0 0.00 0.00 0.00 84 1007.3
20171022133600 47 112 5.0 0.0 0.00 0.00 0.00 84 1007.3
20171022133101 47 135 5.0 0.0 0.00 0.00 0.00 84 1007.5
20171022132601 47 112 5.0 0.0 0.00 0.00 0.00 84 1007.5
20171022132101 47 135 2.0 0.0 0.00 0.00 0.00 84 1007.6
20171022131600 47 112 6.0 0.0 0.00 0.00 0.00 84 1007.6
20171022131101 47 90 6.0 0.0 0.00 0.00 0.00 84 1007.6
20171022130600 47 112 5.0 0.0 0.00 0.00 0.00 84 1007.6
20171022130101 47 90 3.0 0.0 0.00 0.00 0.00 84 1007.6
20171022125600 47 112 5.0 0.0 0.00 0.00 0.00 84 1007.7
20171022125101 47 135 1.0 0.0 0.00 0.00 0.00 84 1007.6
20171022124601 47 112 8.0 0.0 0.00 0.00 0.00 84 1007.6
20171022124101 47 90 7.0 0.0 0.00 0.00 0.00 84 1007.7
20171022123601 47 90 4.0 0.0 0.00 0.00 0.00 84 1007.6
20171022123101 47 157 3.0 0.0 0.00 0.00 0.00 84 1007.6
20171022122601 47 135 4.0 0.0 0.00 0.00 0.00 84 1007.6
20171022122101 47 135 5.0 0.0 0.00 0.00 0.00 84 1007.6
20171022121600 47 90 4.0 0.0 0.00 0.00 0.00 84 1007.6
20171022121100 47 90 6.0 0.0 0.00 0.00 0.00 84 1007.6
20171022120600 47 112 5.0 0.0 0.00 0.00 0.00 84 1007.6
20171022120101 47 67 7.0 0.0 0.00 0.00 0.00 84 1007.6
20171022115600 47 112 4.0 0.0 0.00 0.00 0.00 84 1007.6
20171022115100 47 90 3.0 0.0 0.00 0.00 0.00 84 1007.7
20171022114600 47 67 3.0 0.0 0.00 0.00 0.00 84 1007.7
20171022114101 47 112 4.0 0.0 0.00 0.00 0.00 84 1007.7
20171022113601 47 112 9.0 0.0 0.00 0.00 0.00 84 1007.6
20171022113101 47 45 7.0 0.0 0.00 0.00 0.00 84 1007.6
20171022112601 47 67 6.0 0.0 0.00 0.00 0.00 84 1007.6
20171022112101 47 112 9.0 0.0 0.00 0.00 0.00 84 1007.6
20171022111601 47 90 8.0 0.0 0.00 0.00 0.00 84 1007.6
20171022111101 48 112 10.0 0.0 0.00 0.00 0.00 84 1007.6
20171022110601 48 157 5.0 0.0 0.00 0.00 0.00 84 1007.6
20171022110100 48 67 5.0 0.0 0.00 0.00 0.00 84 1007.7
20171022105601 48 67 6.0 0.0 0.00 0.00 0.00 84 1007.8
20171022105100 48 90 9.0 0.0 0.00 0.00 0.00 84 1007.9
20171022104600 48 90 2.0 0.0 0.00 0.00 0.00 84 1008.0
20171022104100 48 67 6.0 0.0 0.00 0.00 0.00 84 1007.9
20171022103600 48 112 5.0 0.0 0.00 0.00 0.00 84 1007.9
20171022103101 48 67 4.0 0.0 0.00 0.00 0.00 84 1007.9
20171022102601 48 112 4.0 0.0 0.00 0.00 0.00 84 1008.1
20171022102101 47 112 4.0 0.0 0.00 0.00 0.00 84 1008.1
20171022101601 47 45 5.0 0.0 0.00 0.00 0.00 84 1008.1
20171022101101 47 112 4.0 0.0 0.00 0.00 0.00 84 1008.2
20171022100601 48 135 3.0 0.0 0.00 0.00 0.00 84 1008.3
20171022100101 47 112 4.0 0.0 0.00 0.00 0.00 84 1008.3
20171022095601 48 67 4.0 0.0 0.00 0.00 0.00 84 1008.3
20171022095101 48 90 5.0 0.0 0.00 0.00 0.00 84 1008.2
20171022094601 48 90 5.0 0.0 0.00 0.00 0.00 84 1008.3
20171022094101 48 112 3.0 0.0 0.00 0.00 0.00 84 1008.4
20171022093601 48 45 5.0 0.0 0.00 0.00 0.00 84 1008.4
20171022093100 48 67 3.0 0.0 0.00 0.00 0.00 84 1008.4
20171022092600 48 90 4.0 0.0 0.00 0.00 0.00 84 1008.4
20171022092101 48 112 4.0 0.0 0.00 0.00 0.00 84 1008.5
20171022091601 48 112 6.0 0.0 0.00 0.00 0.00 84 1008.5
20171022091101 48 90 6.0 0.0 0.00 0.00 0.00 84 1008.6
20171022090601 48 67 4.0 0.0 0.00 0.00 0.00 84 1008.6
20171022090101 48 112 1.0 0.0 0.00 0.00 0.00 84 1008.4
20171022085601 48 90 4.0 0.0 0.00 0.00 0.00 84 1008.5
20171022085101 48 67 3.0 0.0 0.00 0.00 0.00 84 1008.5
20171022084601 48 90 6.0 0.0 0.00 0.00 0.00 84 1008.6
20171022084104 48 112 2.0 0.0 0.00 0.00 0.00 84 1008.6
20171022083600 48 112 4.0 0.0 0.00 0.00 0.00 84 1008.5
20171022083101 48 90 4.0 0.0 0.00 0.00 0.00 84 1008.5
20171022082601 48 90 5.0 0.0 0.00 0.00 0.00 84 1008.5
20171022082101 49 135 6.0 0.0 0.00 0.00 0.00 84 1008.5
20171022081601 49 112 4.0 0.0 0.00 0.00 0.00 84 1008.5
20171022081101 49 135 4.0 0.0 0.00 0.00 0.00 84 1008.5
20171022080601 49 112 2.0 0.0 0.00 0.00 0.00 84 1008.6
20171022080101 49 112 2.0 0.0 0.00 0.00 0.00 84 1008.6